COSMOS 1275 DEB, 17793

Orbit data source: Space-Track

COSMOS 1275 DEB, 17793 is space debris in LEO originally from a launch on Thu, 04 Jun 1981 UTC launched from the Plesetsk Missile And Space Complex (PKMTR). Debris objects in space refer to the collection of defunct objects orbiting the Earth. Examples of debris include non-operational satellites, rocket bodies, and fragments generated from explosions, collisions, or faulty payload assembly.

Loading next visibility...
Identifier
17793, 1981-053LP
Orbit
LEO
Country
Flag of CISCIS
Related business
Manufacturer
Unknown
Mission
Spacecraft
Bus & Motor
Unknown
Mass
Unknown
Launch date (UTC)
1981-06-04 (45 years ago)
Launch vehicle
Unknown
Launch site
Plesetsk Missile And Space Complex (PKMTR)
Object type
Payload
Rocket body
Debris
Shape & HBR
Unknown shape, 0.1 m
Radar Cross Section
Small (<0.1 m²)

Expand to show TLE details & history
Last TLE update: 18 hours ago

TLE from 18 hours ago
0 COSMOS 1275 DEB
1 17793U 81053LP  26094.20912237  .00000620  00000-0  10319-2 0  9995
2 17793  83.1530 183.2840 0262825 348.9761  37.5648 13.32495027987382
Epoch: 2026-04-04T05:01Z
TLE epoch observation values (Epoch: 2026-04-04T05:01:08.172Z)
Latitude
28.24808°
Longitude
-80.85264°
Altitude
986.193 km
Speed
7.436 km/s
True Right ascension
12h 27m 51s
True Declination
28° 06' 34"
Sunlit
Object was in full shadow at epoch
Visualization orbit readout
Latitude
Unknown
Longitude
Unknown
Altitude
Unknown
Speed
Unknown
Apparent Right ascension
Unknown
Apparent Declination
Unknown
Sunlit
N/A
Visualization observer readout
Local Sidereal Time
05:16:43
Azimuth
Unknown
Elevation
Unknown
Doppler factor
Unknown
Orbital elements
Apogee altitude
1,332.017 km
Perigee altitude
937.112 km
Semi-major axis
7,512.701 km
Eccentricity
0.02628
Inclination
83.153°
RAAN
183.284°
Arg. of periapsis
348.9761°
True anomaly
39.44964°
Mean anomaly
37.5648°
Eccentric anomaly
38.50228°
Mean motion
3.3331 °/min
Orbital period
108.01 mins
BSTAR
0.0010319
Loading maneuver chart data...
Computing Atmospheric mass density...
Loading historical data...
Loading historical data...
Loading historical data...
Loading historical data...
Loading historical data...
Loading historical data...
Loading historical data...

Documentation

Showing up to 5 results
|